TimeEDT,TemperatureF,Dew PointF,Humidity,Sea Level PressureIn,VisibilityMPH,Wind Direction,Wind SpeedMPH,Gust SpeedMPH,PrecipitationIn,Events,Conditions,WindDirDegrees,DateUTC
12:15 AM,71.6,69.8,94,30.02,10.0,Calm,Calm,-,N/A,,Clear,0,2012-10-15 04:15:00
12:35 AM,69.8,69.8,100,30.01,10.0,Calm,Calm,-,N/A,,Clear,0,2012-10-15 04:35:00
12:55 AM,69.8,69.8,100,30.01,10.0,Calm,Calm,-,N/A,,Clear,0,2012-10-15 04:55:00
1:15 AM,69.8,68.0,94,30.00,10.0,Calm,Calm,-,N/A,,Scattered Clouds,0,2012-10-15 05:15:00
1:35 AM,69.8,69.8,100,29.99,10.0,Calm,Calm,-,N/A,,Clear,0,2012-10-15 05:35:00
1:55 AM,69.8,69.8,100,29.99,10.0,Calm,Calm,-,N/A,,Clear,0,2012-10-15 05:55:00
2:15 AM,68.0,68.0,100,29.97,10.0,Calm,Calm,-,N/A,,Clear,0,2012-10-15 06:15:00
2:35 AM,68.0,68.0,100,29.97,7.0,Calm,Calm,-,N/A,,Clear,0,2012-10-15 06:35:00
2:55 AM,68.0,68.0,100,29.96,10.0,Calm,Calm,-,N/A,,Clear,0,2012-10-15 06:55:00
3:15 AM,68.0,68.0,100,29.96,7.0,Calm,Calm,-,N/A,,Clear,0,2012-10-15 07:15:00
3:35 AM,68.0,68.0,100,29.96,7.0,Calm,Calm,-,N/A,,Clear,0,2012-10-15 07:35:00
3:55 AM,68.0,68.0,100,29.96,7.0,Calm,Calm,-,N/A,,Clear,0,2012-10-15 07:55:00
4:15 AM,68.0,68.0,100,29.96,7.0,Calm,Calm,-,N/A,,Clear,0,2012-10-15 08:15:00
4:35 AM,68.0,68.0,100,29.95,7.0,Calm,Calm,-,N/A,,Clear,0,2012-10-15 08:35:00
4:55 AM,68.0,68.0,100,29.95,7.0,Calm,Calm,-,N/A,,Clear,0,2012-10-15 08:55:00
5:15 AM,68.0,68.0,100,29.94,7.0,Calm,Calm,-,N/A,,Clear,0,2012-10-15 09:15:00
5:55 AM,68.0,68.0,100,29.94,5.0,Calm,Calm,-,N/A,,Clear,0,2012-10-15 09:55:00
6:15 AM,68.0,68.0,100,29.94,7.0,Calm,Calm,-,N/A,,Clear,0,2012-10-15 10:15:00
6:35 AM,66.2,66.2,100,29.95,1.5,Calm,Calm,-,N/A,,Mist,0,2012-10-15 10:35:00
6:55 AM,66.2,66.2,100,29.95,7.0,Calm,Calm,-,N/A,,Clear,0,2012-10-15 10:55:00
7:15 AM,66.2,66.2,100,29.96,7.0,Calm,Calm,-,N/A,,Clear,0,2012-10-15 11:15:00
7:35 AM,68.0,68.0,100,29.96,7.0,Calm,Calm,-,N/A,,Clear,0,2012-10-15 11:35:00
7:55 AM,68.0,68.0,100,29.96,7.0,Calm,Calm,-,N/A,,Clear,0,2012-10-15 11:55:00
8:15 AM,68.0,68.0,100,29.96,5.0,Calm,Calm,-,N/A,,Clear,0,2012-10-15 12:15:00
8:35 AM,68.0,68.0,100,29.96,7.0,Calm,Calm,-,N/A,,Clear,0,2012-10-15 12:35:00
8:55 AM,69.8,69.8,100,29.96,7.0,Calm,Calm,-,N/A,,Clear,0,2012-10-15 12:55:00
9:15 AM,71.6,71.6,100,29.97,10.0,Calm,Calm,-,N/A,,Mostly Cloudy,0,2012-10-15 13:15:00
9:35 AM,73.4,71.6,94,29.98,10.0,Calm,Calm,-,N/A,,Overcast,0,2012-10-15 13:35:00
9:55 AM,73.4,71.6,94,29.99,10.0,Calm,Calm,-,N/A,,Overcast,0,2012-10-15 13:55:00
10:15 AM,77.0,71.6,83,29.98,10.0,Calm,Calm,-,N/A,,Mostly Cloudy,0,2012-10-15 14:15:00
10:35 AM,78.8,73.4,83,29.98,10.0,Calm,Calm,-,N/A,,Mostly Cloudy,0,2012-10-15 14:35:00
10:55 AM,80.6,71.6,74,29.98,10.0,Calm,Calm,-,N/A,,Mostly Cloudy,0,2012-10-15 14:55:00
11:15 AM,82.4,71.6,70,29.97,10.0,Calm,Calm,-,N/A,,Mostly Cloudy,0,2012-10-15 15:15:00
11:55 AM,82.4,69.8,66,29.96,10.0,West,5.8,-,N/A,,Scattered Clouds,270,2012-10-15 15:55:00
12:15 PM,84.2,68.0,58,29.95,10.0,NNW,3.5,-,N/A,,Clear,330,2012-10-15 16:15:00
12:35 PM,86.0,69.8,58,29.94,10.0,WNW,4.6,-,N/A,,Clear,290,2012-10-15 16:35:00
12:55 PM,84.2,69.8,62,29.93,10.0,WNW,4.6,-,N/A,,Scattered Clouds,300,2012-10-15 16:55:00
1:15 PM,82.4,71.6,70,29.92,10.0,NW,5.8,-,N/A,,Scattered Clouds,310,2012-10-15 17:15:00
1:35 PM,82.4,69.8,66,29.91,10.0,WNW,5.8,-,N/A,,Clear,290,2012-10-15 17:35:00
1:55 PM,84.2,69.8,62,29.91,10.0,West,8.1,-,N/A,,Clear,270,2012-10-15 17:55:00
2:15 PM,86.0,68.0,55,29.89,10.0,WNW,9.2,-,N/A,,Clear,290,2012-10-15 18:15:00
2:35 PM,84.2,66.2,55,29.88,10.0,West,8.1,-,N/A,,Clear,280,2012-10-15 18:35:00
2:55 PM,82.4,68.0,62,29.88,10.0,West,9.2,-,N/A,,Clear,280,2012-10-15 18:55:00
3:15 PM,82.4,69.8,66,29.87,10.0,WNW,6.9,-,N/A,,Clear,290,2012-10-15 19:15:00
3:35 PM,80.6,69.8,70,29.86,10.0,West,10.4,-,N/A,,Clear,280,2012-10-15 19:35:00
3:55 PM,80.6,71.6,74,29.86,10.0,West,9.2,-,N/A,,Clear,280,2012-10-15 19:55:00
4:15 PM,80.6,71.6,74,29.86,10.0,WNW,4.6,-,N/A,,Clear,300,2012-10-15 20:15:00
4:35 PM,80.6,71.6,74,29.85,10.0,WNW,4.6,-,N/A,,Clear,290,2012-10-15 20:35:00
4:55 PM,82.4,69.8,66,29.85,10.0,West,8.1,-,N/A,,Clear,280,2012-10-15 20:55:00
5:15 PM,80.6,69.8,70,29.85,10.0,West,6.9,-,N/A,,Clear,280,2012-10-15 21:15:00
5:35 PM,80.6,71.6,74,29.85,10.0,West,8.1,-,N/A,,Clear,280,2012-10-15 21:35:00
5:55 PM,80.6,71.6,74,29.84,10.0,West,4.6,-,N/A,,Clear,270,2012-10-15 21:55:00
6:15 PM,80.6,69.8,70,29.84,10.0,West,6.9,-,N/A,,Clear,270,2012-10-15 22:15:00
6:35 PM,78.8,69.8,74,29.85,10.0,West,5.8,-,N/A,,Clear,280,2012-10-15 22:35:00
6:55 PM,77.0,71.6,83,29.85,10.0,West,3.5,-,N/A,,Clear,280,2012-10-15 22:55:00
7:15 PM,77.0,71.6,83,29.85,10.0,Calm,Calm,-,N/A,,Clear,0,2012-10-15 23:15:00
7:35 PM,75.2,71.6,89,29.85,10.0,West,3.5,-,N/A,,Clear,280,2012-10-15 23:35:00
7:55 PM,73.4,71.6,94,29.85,10.0,Calm,Calm,-,N/A,,Clear,0,2012-10-15 23:55:00
8:15 PM,73.4,69.8,88,29.85,10.0,West,3.5,-,N/A,,Clear,270,2012-10-16 00:15:00
8:35 PM,71.6,69.8,94,29.86,10.0,Calm,Calm,-,N/A,,Clear,0,2012-10-16 00:35:00
8:55 PM,71.6,69.8,94,29.87,10.0,Calm,Calm,-,N/A,,Clear,0,2012-10-16 00:55:00
9:15 PM,69.8,69.8,100,29.87,10.0,Calm,Calm,-,N/A,,Clear,0,2012-10-16 01:15:00
9:35 PM,69.8,68.0,94,29.87,10.0,Calm,Calm,-,N/A,,Clear,0,2012-10-16 01:35:00
9:55 PM,68.0,68.0,100,29.88,10.0,Calm,Calm,-,N/A,,Clear,0,2012-10-16 01:55:00
10:15 PM,68.0,68.0,100,29.88,10.0,Calm,Calm,-,N/A,,Clear,0,2012-10-16 02:15:00
10:35 PM,68.0,68.0,100,29.88,7.0,Calm,Calm,-,N/A,,Clear,0,2012-10-16 02:35:00
10:55 PM,68.0,68.0,100,29.88,7.0,Calm,Calm,-,N/A,,Clear,0,2012-10-16 02:55:00
11:15 PM,66.2,66.2,100,29.88,7.0,Calm,Calm,-,N/A,,Clear,0,2012-10-16 03:15:00
11:35 PM,66.2,66.2,100,29.87,7.0,Calm,Calm,-,N/A,,Clear,0,2012-10-16 03:35:00
11:55 PM,66.2,66.2,100,29.88,10.0,Calm,Calm,-,N/A,,Clear,0,2012-10-16 03:55:00